1503489600.48,5920,16.44,73908.3,9.85,1.83,1.55,0,*4C
1503489601.67,5921,16.38,73904.3,9.85,1.75,1.41,0,*41
1503489602.87,5922,16.44,73908.0,9.87,1.79,1.55,0,*49
1503489604.06,5923,16.44,73906.8,9.85,1.79,1.41,0,*4F
1503489605.28,5924,16.44,73904.8,9.87,1.71,1.37,0,*43
1503489606.52,5925,16.44,73908.3,9.85,0.95,0.55,0,*4E
1503489607.74,5926,16.44,73906.3,9.87,1.25,0.95,0,*79
1503489608.98,5927,16.44,73908.3,9.85,1.43,1.09,0,*4E
1503489610.22,5928,16.44,73908.8,9.85,1.43,1.17,0,*4E
1503489611.44,5929,16.44,73910.5,9.85,1.33,0.97,0,*71
1503489612.66,5930,16.44,73908.0,9.85,1.05,0.67,0,*73
1503489613.91,5931,16.44,73908.5,9.85,1.21,0.83,0,*7E
1503489615.16,5932,16.44,73912.5,9.85,1.17,0.83,0,*78
1503489616.34,5933,16.44,73908.8,9.85,1.41,0.97,0,*7F
1503489617.54,5934,16.38,73904.5,9.83,1.33,0.97,0,*7B
1503489618.73,5935,16.44,73910.5,9.83,1.05,0.67,0,*70
1503489619.96,5936,16.44,73906.8,9.83,0.91,0.55,0,*4E
1503489621.19,5937,16.44,73910.3,9.81,0.55,0.17,0,*43
1503489622.37,5938,16.44,73910.5,9.81,0.43,0.05,0,*78
1503489623.62,5939,16.44,73908.3,9.81,1.13,0.75,0,*7A
1503489624.86,5940,16.44,73910.3,9.77,0.87,0.41,0,*46
1503489626.06,5941,16.38,73904.0,9.77,0.41,0.01,0,*79
1503489627.27,5942,16.44,73908.0,9.79,0.87,0.33,0,*4F
1503489628.5,5943,16.44,73914.0,9.77,0.83,0.25,0,*43
1503489629.73,5944,16.44,73910.8,9.77,0.83,0.41,0,*46
1503489630.92,5945,16.44,73908.0,9.71,0.97,0.67,0,*40
1503489632.08,5946,16.38,73904.5,9.71,1.41,1.05,0,*4C
1503489633.31,5947,16.44,73908.5,9.73,0.97,0.59,0,*4D
1503489634.56,5948,16.44,73910.8,9.73,1.17,0.71,0,*71
1503489635.77,5949,16.38,73906.3,9.71,1.33,0.95,0,*7E
1503489637.02,5950,16.44,73908.8,9.73,0.87,0.47,0,*45
1503489638.2,5951,16.44,73908.8,9.71,0.47,0.05,0,*7C
1503489639.42,5952,16.44,73910.8,9.71,1.21,0.79,0,*75
1503489640.64,5953,16.44,73908.0,9.71,1.09,0.71,0,*76
1503489641.82,5954,16.44,73908.5,9.71,0.59,0.05,0,*76
1503489643.03,5955,16.44,73908.0,9.69,0.21,-0.29,0,*62
1503489644.24,5956,16.44,73908.3,9.67,0.75,0.41,0,*4D
1503489645.45,5957,16.44,73910.5,9.69,0.79,0.43,0,*4C
1503489646.67,5958,16.44,73908.0,9.69,1.01,0.75,0,*78
1503489647.89,5959,16.44,73906.8,9.67,0.91,0.63,0,*48
1503489649.09,5960,16.44,73910.5,9.67,1.13,1.01,0,*4C
1503489650.31,5961,16.38,73908.3,9.67,1.47,1.25,0,*4A
1503489651.55,5962,16.44,73910.3,9.69,1.59,1.47,0,*4C
1503489652.74,5963,16.44,73908.8,9.69,1.79,1.75,0,*4E
1503489653.98,5964,16.44,73908.5,9.69,1.59,1.51,0,*4D
1503489655.21,5965,16.44,73910.8,9.69,1.17,1.01,0,*43
1503489656.42,5966,16.44,73908.5,9.67,0.79,0.63,0,*42
1503489657.62,5967,16.44,73910.3,9.67,1.01,0.91,0,*70
1503489658.85,5968,16.44,73912.3,9.69,0.63,0.51,0,*48
1503489660.05,5969,16.44,73912.8,9.67,1.01,0.91,0,*7E
1503489661.25,5970,16.44,73910.0,9.67,1.01,0.91,0,*76
1503489662.48,5971,16.44,73910.8,9.67,1.37,1.17,0,*4D
1503489663.7,5972,16.44,73910.8,9.69,1.41,1.25,0,*40
1503489664.9,5973,16.44,73914.5,9.67,1.41,1.37,0,*4C
1503489666.14,5974,16.44,73912.5,9.69,1.51,1.29,0,*4B
1503489667.33,5975,16.44,73914.0,9.67,1.25,1.01,0,*4D
1503489668.56,5976,16.44,73912.3,9.67,1.25,0.91,0,*76
1503489669.81,5977,16.44,73912.5,9.69,1.37,1.13,0,*41
1503489671.02,5978,16.44,73910.5,9.69,1.59,1.41,0,*41
1503489672.26,5979,16.44,73908.3,9.69,1.63,1.47,0,*4F
1503489673.5,5980,16.44,73910.3,9.69,1.59,1.47,0,*40
1503489674.74,5981,16.44,73910.8,9.69,1.59,1.37,0,*46
1503489675.96,5982,16.44,73910.3,9.71,1.17,0.87,0,*7C
1503489677.17,5983,16.44,73908.0,9.71,0.71,0.59,0,*4F
1503489678.36,5984,16.44,73910.3,9.71,0.97,0.59,0,*40
1503489679.53,5985,16.44,73910.3,9.71,0.05,-0.37,0,*5F
1503489680.71,5986,16.44,73910.8,9.67,0.33,0.05,0,*72
1503489681.91,5987,16.38,73906.5,9.67,0.67,0.33,0,*47
1503489683.11,5988,16.44,73908.3,9.67,0.67,0.41,0,*4D
1503489684.32,5989,16.44,73910.5,9.67,0.63,0.29,0,*46
1503489685.52,5990,16.44,73910.5,9.67,0.63,0.33,0,*45
1503489686.73,5991,16.44,73910.8,9.63,0.71,0.47,0,*40
1503489687.97,5992,16.44,73912.0,9.65,0.91,0.79,0,*46
1503489689.17,5993,16.44,73910.3,9.63,0.97,0.59,0,*45
1503489690.36,5994,16.44,73910.0,9.63,1.21,0.97,0,*7C
1503489691.58,5995,16.44,73910.8,9.63,1.33,0.95,0,*7C
1503489692.83,5996,16.44,73908.0,9.65,1.55,1.33,0,*44
1503489694.06,5997,16.44,73912.0,9.65,1.21,1.01,0,*47
1503489695.26,5998,16.44,73912.5,9.63,1.33,1.05,0,*49
1503489696.46,5999,16.44,73908.8,9.63,1.41,1.09,0,*41
1503489697.7,6000,16.44,73908.8,9.65,0.91,0.71,0,*4F
1503489698.94,6001,16.44,73908.8,9.65,0.75,0.47,0,*41
1503489700.17,6002,16.44,73910.8,9.65,0.59,0.17,0,*49
1503489701.38,6003,16.44,73908.5,9.63,0.47,0.25,0,*40
1503489702.62,6004,16.44,73914.0,9.65,0.87,0.59,0,*46
1503489703.86,6005,16.44,73910.8,9.65,0.71,0.41,0,*47
1503489705.07,6006,16.44,73908.3,9.63,0.47,0.21,0,*41
1503489706.27,6007,16.44,73908.3,9.61,-0.15,-0.49,0,*4B
1503489707.45,6008,16.44,73908.5,9.63,0.25,-0.03,0,*56
1503489708.67,6009,16.44,73908.5,9.63,0.83,0.59,0,*49
1503489709.9,6010,16.44,73910.3,9.59,1.37,1.17,0,*4D
1503489711.14,6011,16.44,73906.5,9.61,1.09,0.95,0,*71
1503489712.36,6012,16.44,73912.0,9.65,1.25,0.97,0,*7A
1503489713.55,6013,16.44,73910.5,9.63,0.97,0.55,0,*4B
1503489714.74,6014,16.44,73912.3,9.63,0.97,0.59,0,*40
1503489715.94,6015,16.44,73912.0,9.63,0.71,0.33,0,*45
1503489717.16,6016,16.44,73914.8,9.63,1.29,0.95,0,*76
1503489718.32,6017,16.44,73908.0,9.63,1.41,0.97,0,*7B
1503489719.54,6018,16.44,73908.0,9.63,1.17,0.83,0,*72
1503489720.76,6019,16.44,73914.3,9.63,1.29,0.95,0,*79
1503489721.95,6020,16.44,73910.0,9.63,0.97,0.59,0,*47
1503489723.18,6021,16.44,73910.0,9.63,1.17,0.83,0,*78
1503489724.39,6022,16.44,73912.5,9.61,0.95,0.43,0,*4E
1503489725.63,6023,16.44,73912.8,9.61,0.59,0.21,0,*4B
1503489726.87,6024,16.44,73908.8,9.61,1.33,0.95,0,*7E
1503489728.1,6025,16.44,73912.8,9.61,1.05,0.83,0,*7D
1503489729.34,6026,16.44,73910.5,9.61,1.71,1.43,0,*40
1503489730.6,6027,16.44,73910.0,9.61,1.33,1.17,0,*46
1503489731.84,6028,16.44,73914.5,9.61,1.93,1.59,0,*49
1503489733.04,6029,16.44,73912.5,9.63,1.21,1.05,0,*4A
1503489734.24,6030,16.44,73908.8,9.63,0.67,0.37,0,*41
1503489735.42,6031,16.44,73910.3,9.63,0.33,-0.03,0,*5B
1503489736.64,6032,16.44,73910.8,9.61,1.05,0.95,0,*7C
1503489737.86,6033,16.44,73910.5,9.61,0.97,0.75,0,*49
1503489739.07,6034,16.44,73908.0,9.61,1.05,0.95,0,*7A
1503489740.29,6035,16.44,73910.8,9.59,0.91,0.63,0,*45
1503489741.51,6036,16.44,73910.3,9.59,0.91,0.71,0,*45
1503489742.73,6037,16.44,73914.0,9.59,1.13,0.95,0,*75
1503489743.96,6038,16.44,73908.3,9.61,0.75,0.67,0,*4D
1503489745.2,6039,16.44,73910.8,9.61,0.71,0.59,0,*45
1503489746.43,6040,16.44,73910.8,9.57,0.51,0.37,0,*44
1503489747.66,6041,16.44,73910.8,9.57,0.41,0.17,0,*46
1503489748.84,6042,16.44,73910.3,9.55,0.37,-0.07,0,*5A
1503489750.05,6043,16.44,73908.5,9.55,0.67,0.51,0,*40
1503489751.26,6044,16.44,73910.8,9.55,0.79,0.47,0,*4F
1503489752.45,6045,16.44,73906.0,9.55,0.97,0.87,0,*42
1503489753.67,6046,16.44,73910.5,9.55,0.91,0.75,0,*4A
1503489754.9,6047,16.44,73910.3,9.55,1.21,0.91,0,*7B
1503489756.09,6048,16.44,73910.3,9.55,1.37,0.97,0,*75
1503489757.32,6049,16.44,73908.3,9.53,0.75,0.33,0,*4B
1503489758.52,6050,16.44,73910.8,9.55,0.63,0.17,0,*44
1503489759.75,6051,16.44,73908.5,9.53,0.71,0.25,0,*41
1503489760.97,6052,16.44,73906.8,9.49,1.05,0.59,0,*70
1503489762.22,6053,16.44,73910.3,9.53,0.87,0.47,0,*4E
1503489763.43,6054,16.44,73910.3,9.53,0.87,0.43,0,*4D
1503489764.61,6055,16.44,73908.3,9.49,0.43,-0.07,0,*52
1503489765.83,6056,16.44,73908.5,9.49,0.79,0.43,0,*45
1503489767.05,6057,16.44,73910.5,9.49,1.01,0.59,0,*71
1503489768.28,6058,16.44,73906.5,9.49,0.79,0.33,0,*4C
1503489769.52,6059,16.44,73912.8,9.49,0.95,0.59,0,*43
1503489770.7,6060,16.44,73906.0,9.49,0.43,0.05,0,*7B
1503489771.94,6061,16.44,73906.5,9.49,0.83,0.55,0,*43
1503489773.15,6062,16.44,73908.3,9.49,0.51,0.05,0,*7A
1503489774.31,6063,16.44,73908.3,9.47,0.43,-0.07,0,*59
1503489775.47,6064,16.44,73910.0,9.47,0.09,-0.33,0,*57
1503489776.66,6065,16.44,73910.0,9.47,0.17,-0.33,0,*69
1503489777.86,6066,16.44,73906.5,9.45,-0.19,-0.73,0,*4F
1503489779.08,6067,16.44,73906.8,9.43,0.17,-0.27,0,*6A
1503489780.32,6068,16.44,73904.3,9.41,0.33,-0.27,0,*61
1503489781.54,6069,16.44,73908.5,9.41,0.25,-0.15,0,*66
1503489782.76,6070,16.44,73910.5,9.41,0.33,-0.41,0,*68
1503489783.96,6071,16.44,73910.5,9.41,-0.03,-0.73,0,*76
1503489785.18,6072,16.44,73910.3,9.39,-0.45,-1.13,0,*7F
1503489786.35,6073,16.44,73908.0,9.37,-0.45,-1.33,0,*72
1503489787.52,6074,16.44,73910.0,9.37,-0.53,-1.29,0,*79
1503489788.72,6075,16.44,73912.5,9.37,-0.65,-1.39,0,*7C
1503489789.9,6076,16.44,73910.0,9.33,-0.33,-1.17,0,*74
1503489791.14,6077,16.44,73908.8,9.35,-0.23,-0.97,0,*4B
1503489792.35,6078,16.44,73906.5,9.35,0.41,-0.45,0,*62
1503489793.54,6079,16.44,73910.0,9.35,0.43,-0.33,0,*60
1503489794.75,6080,16.44,73908.5,9.35,0.41,-0.49,0,*69
1503489795.96,6081,16.44,73910.0,9.35,0.29,-0.61,0,*6C
1503489797.14,6082,16.44,73908.5,9.37,0.29,-0.57,0,*68
1503489798.34,6083,16.44,73910.0,9.37,0.41,-0.41,0,*60
1503489799.53,6084,16.44,73912.5,9.37,-0.29,-1.05,0,*75
1503489800.73,6085,16.44,73908.5,9.35,0.01,-0.85,0,*58
1503489801.95,6086,16.44,73908.5,9.35,0.25,-0.73,0,*64
1503489803.16,6087,16.44,73908.5,9.33,-0.81,-1.91,0,*7D
1503489804.35,6088,16.44,73908.8,9.33,-1.33,-2.23,0,*40
1503489805.53,6089,16.44,73910.5,9.33,-1.79,-2.83,0,*45
1503489806.73,6090,16.44,73910.3,9.33,-1.35,-2.19,0,*46
1503489807.95,6091,16.44,73904.8,9.33,-1.17,-1.91,0,*44
1503489809.21,6092,16.44,73908.0,9.27,-2.03,-2.67,0,*4E
1503489810.41,6093,16.44,73906.3,9.27,-2.27,-2.91,0,*40
1503489811.62,6094,16.44,73906.3,9.23,-2.43,-3.07,0,*4F
1503489812.85,6095,16.44,73906.0,9.23,-1.83,-2.43,0,*40
1503489814.09,6096,16.44,73904.5,9.21,-2.07,-2.59,0,*45
1503489815.32,6097,16.44,73908.0,9.19,-2.47,-2.87,0,*48
1503489816.53,6098,16.44,73908.8,9.17,-1.79,-2.11,0,*48
1503489817.75,6099,16.44,73908.0,9.15,-1.29,-1.67,0,*4C
1503489818.97,6100,16.44,73908.3,9.15,-0.53,-0.89,0,*40
1503489820.16,6101,16.44,73910.0,9.15,-0.53,-0.81,0,*49
1503489821.39,6102,16.44,73910.8,9.15,-0.27,-0.49,0,*4D
1503489822.59,6103,16.44,73908.3,9.15,-0.29,-0.49,0,*42
1503489823.85,6104,16.44,73910.0,9.15,-1.13,-1.35,0,*47
1503489825.1,6105,16.44,73904.8,9.15,-1.35,-1.39,0,*4E
1503489826.34,6106,16.44,73914.3,9.13,-0.85,-1.05,0,*7E
1503489827.55,6107,16.44,73908.3,9.13,-1.83,-2.15,0,*4A
1503489828.82,6108,16.44,73906.5,9.11,-2.47,-2.71,0,*4E
1503489830.05,6109,16.44,73910.0,9.05,-1.99,-2.15,0,*48
1503489831.29,6110,16.44,73910.0,9.09,-1.47,-1.47,0,*4B
1503489832.54,6111,16.44,73908.3,9.05,-1.01,-1.01,0,*46
1503489833.8,6112,16.44,73906.0,9.05,-1.05,-1.05,0,*45
1503489834.97,6113,16.44,73908.3,9.03,-0.57,-0.57,0,*42
1503489836.14,6114,16.44,73906.0,9.03,-0.29,-0.19,0,*46
1503489837.34,6115,16.44,73910.8,9.03,0.29,0.33,0,*4F
1503489838.55,6116,16.44,73910.3,9.03,0.41,0.55,0,*42
1503489839.76,6117,16.44,73904.8,9.09,0.59,0.75,0,*42
1503489840.97,6118,16.44,73904.0,9.09,0.17,0.29,0,*4E
1503489842.18,6119,16.44,73906.8,9.09,0.13,0.17,0,*46
1503489843.36,6120,16.44,73906.8,9.09,-0.15,-0.15,0,*48
1503489844.54,6121,16.44,73906.0,9.09,-0.11,-0.15,0,*4D
1503489845.72,6122,16.44,73906.8,9.09,-0.65,-0.77,0,*49
1503489846.95,6123,16.44,73906.5,9.05,-1.35,-1.51,0,*45
1503489848.13,6124,16.44,73906.8,9.03,-1.59,-1.71,0,*4C
1503489849.34,6125,16.44,73904.3,9.01,-1.33,-1.51,0,*41
1503489850.58,6126,16.44,73906.8,9.01,-1.33,-1.39,0,*4C
1503489851.82,6127,16.44,73904.3,9.01,-1.33,-1.43,0,*40
1503489853.07,6128,16.44,73904.5,8.97,-1.09,-1.01,0,*4E
1503489854.31,6129,16.44,73904.3,8.97,-0.85,-0.85,0,*47
1503489855.51,6130,16.44,73906.5,8.97,-0.61,-0.69,0,*47
1503489856.74,6131,16.44,73906.3,8.97,-1.25,-1.43,0,*4E
1503489857.96,6132,16.44,73910.3,8.95,-1.01,-1.13,0,*4C
1503489859.21,6133,16.44,73904.5,8.93,-0.85,-0.93,0,*4F
1503489860.43,6134,16.44,73904.3,8.93,-0.81,-0.93,0,*4C
1503489861.67,6135,16.44,73902.8,8.93,-0.93,-0.97,0,*4A
1503489862.88,6136,16.44,73902.0,8.93,0.05,-0.23,0,*54
1503489864.08,6137,16.44,73904.3,8.93,-0.19,-0.33,0,*44
1503489865.25,6138,16.44,73904.5,8.91,-0.19,-0.53,0,*4F
1503489866.49,6139,16.44,73906.5,8.93,-1.17,-1.39,0,*4E
1503489867.69,6140,16.44,73904.8,8.91,-0.93,-1.17,0,*73
1503489868.9,6141,16.44,73906.0,8.89,-0.61,-0.89,0,*40
1503489870.13,6142,16.44,73902.8,8.89,-0.23,-0.37,0,*40
1503489871.32,6143,16.44,73904.5,8.89,-0.33,-0.57,0,*46
1503489872.54,6144,16.44,73902.5,8.89,-0.23,-0.45,0,*43
1503489873.74,6145,16.44,73900.8,8.89,-0.15,-0.33,0,*46
1503489874.94,6146,16.44,73904.8,8.89,-0.49,-0.73,0,*48
1503489876.13,6147,16.44,73904.3,8.89,-0.33,-0.61,0,*47
1503489877.33,6148,16.44,73904.0,8.89,-0.15,-0.37,0,*4F
1503489878.52,6149,16.44,73904.5,8.87,-0.69,-0.89,0,*4E
1503489879.74,6150,16.44,73904.3,8.87,-0.89,-1.13,0,*7A
1503489880.96,6151,16.44,73904.3,8.85,-0.65,-0.93,0,*42
1503489882.2,6152,16.44,73906.5,8.81,-0.97,-1.21,0,*70
1503489883.38,6153,16.44,73904.3,8.79,-1.51,-1.67,0,*4F
1503489884.58,6154,16.44,73904.3,8.79,-0.77,-0.93,0,*47
1503489885.81,6155,16.44,73904.8,8.77,-0.23,-0.57,0,*41
1503489887.06,6156,16.44,73904.0,8.77,-0.85,-1.01,0,*7C
1503489888.27,6157,16.44,73908.3,8.77,-0.45,-0.69,0,*4E
1503489889.47,6158,16.44,73906.0,8.77,-0.37,-0.49,0,*46
1503489890.69,6159,16.44,73904.3,8.77,-0.61,-0.93,0,*43
1503489891.95,6160,16.44,73906.5,8.77,-1.09,-1.35,0,*4B
1503489893.16,6161,16.44,73906.8,8.75,-1.55,-1.79,0,*49
1503489894.37,6162,16.44,73906.0,8.73,-1.63,-1.99,0,*47
1503489895.58,6163,16.44,73904.3,8.71,-1.33,-1.51,0,*45
1503489896.83,6164,16.44,73904.5,8.71,-0.89,-1.09,0,*7F
1503489898.03,6165,16.44,73904.0,8.71,-0.69,-0.81,0,*41
1503489899.24,6166,16.44,73906.5,8.69,-0.73,-0.93,0,*43
1503489900.49,6167,16.44,73906.0,8.67,-0.85,-1.09,0,*77
1503489901.69,6168,16.44,73906.8,8.67,-0.45,-0.57,0,*4E
1503489902.89,6169,16.44,73902.8,8.67,-0.57,-0.69,0,*41
1503489904.1,6170,16.44,73904.5,8.67,-0.57,-0.73,0,*42
1503489905.32,6171,16.44,73900.0,8.67,-0.19,-0.23,0,*4C
1503489906.53,6172,16.44,73904.3,8.67,-0.07,-0.11,0,*71
1503489907.76,6173,16.44,73902.3,8.67,-0.23,-0.37,0,*42
1503489908.98,6174,16.44,73906.8,8.63,-0.27,-0.33,0,*41
1503489910.18,6175,16.44,73908.5,8.67,-0.49,-0.61,0,*4B
1503489911.35,6176,16.44,73906.0,8.65,-0.33,-0.53,0,*46
1503489912.55,6177,16.44,73904.0,8.65,-0.65,-0.89,0,*43
1503489913.79,6178,16.44,73904.0,8.63,-0.97,-1.17,0,*71
1503489914.98,6179,16.44,73902.3,8.63,-0.53,-0.61,0,*48
1503489916.18,6180,16.44,73906.5,8.59,-0.15,-0.07,0,*75
1503489917.42,6181,16.44,73904.0,8.59,0.29,0.29,0,*47
1503489918.65,6182,16.44,73900.5,8.59,0.29,0.29,0,*44
1503489919.85,6183,16.44,73900.3,8.59,-0.15,-0.07,0,*76
1503489921.05,6184,16.44,73906.0,8.59,-0.15,-0.07,0,*71
1503489922.26,6185,16.44,73906.5,8.57,0.29,0.37,0,*42
1503489923.47,6186,16.44,73900.0,8.57,0.41,0.55,0,*4B
1503489924.71,6187,16.44,73902.0,8.63,0.21,0.37,0,*4F
1503489925.94,6188,16.44,73906.8,8.59,0.59,0.79,0,*4C
1503489927.18,6189,16.44,73900.8,8.63,0.71,0.87,0,*4F
1503489928.41,6190,16.44,73902.8,8.63,0.63,0.95,0,*47
1503489929.65,6191,16.44,73906.3,8.63,0.51,0.63,0,*4E
1503489930.88,6192,16.44,73902.8,8.63,-0.23,-0.11,0,*4D
1503489932.08,6193,16.44,73906.0,8.63,-0.11,-0.03,0,*7E
1503489933.26,6194,16.44,73904.3,8.57,-0.49,-0.49,0,*4D
1503489934.47,6195,16.44,73902.8,8.59,-0.41,-0.37,0,*43
1503489935.65,6196,16.44,73900.5,8.57,-0.11,-0.11,0,*4F
1503489936.83,6197,16.44,73900.8,8.57,-0.33,-0.49,0,*43
1503489938.04,6198,16.44,73902.5,8.57,-1.05,-1.21,0,*47
1503489939.27,6199,16.44,73900.5,8.57,-0.85,-1.05,0,*79
1503489940.45,6200,16.44,73902.0,8.53,-0.33,-0.65,0,*44
1503489941.65,6201,16.44,73904.3,8.53,0.37,0.25,0,*45
1503489942.84,6202,16.44,73902.8,8.53,0.21,0.09,0,*7F
1503489944.01,6203,16.44,73904.5,8.53,0.01,-0.11,0,*58
1503489945.24,6204,16.44,73900.0,8.51,0.37,0.33,0,*45
1503489946.43,6205,16.44,73904.3,8.49,-0.27,-0.65,0,*4F
1503489947.66,6206,16.44,73902.5,8.51,-1.09,-1.29,0,*41
1503489948.88,6207,16.44,73902.0,8.49,-1.63,-1.99,0,*4E
1503489950.09,6208,16.44,73904.0,8.47,-0.81,-1.21,0,*71
1503489951.31,6209,16.44,73900.8,8.45,-1.83,-2.15,0,*45
1503489952.54,6210,16.44,73902.8,8.41,-1.51,-1.87,0,*4E
1503489953.74,6211,16.44,73902.3,8.39,-1.51,-1.87,0,*40
1503489954.92,6212,16.44,73900.5,8.39,-0.61,-0.89,0,*4E
1503489956.12,6213,16.44,73902.3,8.35,-0.97,-1.29,0,*71
1503489957.35,6214,16.44,73904.5,8.33,-1.09,-1.33,0,*4D
1503489958.61,6215,16.44,73900.5,8.33,-1.95,-2.11,0,*4A
1503489959.81,6216,16.44,73902.5,8.29,-2.91,-3.27,0,*41
1503489960.98,6217,16.44,73900.5,8.27,-2.39,-2.79,0,*46
1503489962.19,6218,16.44,73904.0,8.23,-1.87,-2.31,0,*47
1503489963.4,6219,16.44,73902.0,8.23,-1.63,-2.07,0,*49
1503489964.62,6220,16.44,73900.3,8.21,-0.73,-1.01,0,*74
1503489965.86,6221,16.44,73902.0,8.21,-1.71,-2.11,0,*44
1503489967.07,6222,16.44,73904.3,8.17,-1.79,-2.23,0,*4B
1503489968.34,6223,16.44,73902.0,8.17,-2.03,-2.47,0,*46
1503489969.55,6224,16.44,73902.8,8.17,-1.29,-1.75,0,*48
1503489970.78,6225,16.44,73904.0,8.11,-1.35,-1.75,0,*42
1503489971.98,6226,16.44,73904.8,8.15,-0.77,-1.05,0,*75
1503489973.22,6227,16.44,73904.0,8.11,-1.35,-1.67,0,*43
1503489974.48,6228,16.44,73902.3,8.11,-1.13,-1.43,0,*4E
1503489975.69,6229,16.44,73906.8,8.11,-1.21,-1.55,0,*49
1503489976.9,6230,16.44,73900.8,8.09,-1.35,-1.71,0,*4B
1503489978.14,6231,16.44,73906.3,8.09,-1.09,-1.47,0,*40
1503489979.35,6232,16.44,73900.5,8.09,-1.67,-2.07,0,*4C
1503489980.56,6233,16.44,73902.0,8.09,-1.13,-1.75,0,*48
1503489981.77,6234,16.44,73902.3,8.07,-1.29,-1.75,0,*48
1503489983.03,6235,16.44,73900.3,8.07,-1.05,-1.39,0,*4F
1503489984.25,6236,16.44,73902.3,8.07,-0.65,-1.13,0,*73
1503489985.47,6237,16.44,73904.3,8.03,-1.17,-1.63,0,*45
1503489986.7,6238,16.44,73902.0,8.05,-1.39,-1.91,0,*4D
1503489987.97,6239,16.44,73904.3,8.03,-1.01,-1.39,0,*43
1503489989.17,6240,16.44,73900.8,8.05,-1.01,-1.55,0,*41
1503489990.4,6241,16.44,73900.5,8.03,-1.51,-1.83,0,*48
1503489991.67,6242,16.44,73902.0,8.03,-1.05,-1.43,0,*46
1503489992.88,6243,16.44,73900.8,8.03,-1.33,-1.75,0,*47
1503489994.09,6244,16.44,73902.8,8.03,-1.51,-1.79,0,*48
1503489995.33,6245,16.44,73906.3,7.99,-1.47,-1.75,0,*4E
1503489996.56,6246,16.44,73902.3,7.99,-1.51,-1.83,0,*43
1503489997.78,6247,16.44,73902.8,7.99,-1.51,-1.83,0,*42
1503489999.0,6248,16.44,73902.3,7.97,-1.13,-1.63,0,*4B
1503490000.18,6249,16.44,73906.3,7.97,-0.73,-1.25,0,*7F
1503490001.41,6250,16.44,73902.8,7.95,-0.65,-1.01,0,*74
1503490002.62,6251,16.44,73902.3,7.97,-1.51,-1.91,0,*48
1503490003.84,6252,16.44,73902.5,7.95,-1.17,-1.63,0,*46
1503490005.05,6253,16.44,73904.0,7.93,-1.13,-1.63,0,*45
1503490006.25,6254,16.44,73906.0,7.93,-1.21,-1.67,0,*47
1503490007.46,6255,16.44,73900.5,7.93,-1.01,-1.51,0,*41
1503490008.64,6256,16.44,73904.5,7.89,-0.73,-1.25,0,*7E
1503490009.84,6257,16.44,73902.0,7.93,-0.29,-0.89,0,*4C
1503490011.08,6258,16.44,73902.3,7.89,-1.83,-2.47,0,*49
1503490012.29,6259,16.44,73900.0,7.89,-1.55,-2.11,0,*40
1503490013.48,6260,16.44,73898.8,7.85,-1.21,-1.59,0,*4A
1503490014.7,6261,16.44,73906.3,7.87,-1.29,-1.75,0,*4F
1503490015.89,6262,16.44,73902.3,7.85,-1.21,-1.59,0,*48
1503490017.08,6263,16.44,73904.5,7.85,-1.75,-2.23,0,*46
1503490018.27,6264,16.44,73902.0,7.81,-1.75,-2.15,0,*40
1503490019.49,6265,16.44,73900.0,7.81,-1.99,-2.39,0,*4D
1503490020.7,6266,16.44,73904.0,7.81,-1.79,-2.07,0,*4D
1503490021.94,6267,16.44,73902.8,7.77,-2.07,-2.39,0,*42
1503490023.15,6268,16.44,73902.5,7.75,-2.31,-2.67,0,*41
1503490024.38,6269,16.44,73900.0,7.75,-1.13,-1.39,0,*4B
1503490025.59,6270,16.44,73904.0,7.73,-1.25,-1.55,0,*4A
1503490026.84,6271,16.44,73906.3,7.73,-1.13,-1.43,0,*49
1503490028.05,6272,16.44,73902.3,7.73,-1.17,-1.51,0,*4D
1503490029.25,6273,16.44,73902.5,7.71,-0.93,-1.29,0,*7C
1503490030.46,6274,16.44,73902.3,7.71,-1.55,-1.83,0,*40
1503490031.64,6275,16.44,73900.5,7.67,-1.79,-2.19,0,*48
1503490032.85,6276,16.44,73904.8,7.67,-1.83,-2.23,0,*47
1503490034.08,6277,16.44,73900.0,7.65,-1.99,-2.39,0,*44
1503490035.29,6278,16.44,73902.3,7.63,-1.63,-1.99,0,*41
1503490036.5,6279,16.44,73902.0,7.63,-1.35,-1.63,0,*46
1503490037.73,6280,16.44,73904.0,7.63,-1.09,-1.43,0,*4D
1503490038.93,6281,16.44,73902.5,7.63,-1.09,-1.59,0,*47
1503490040.14,6282,16.44,73906.3,7.59,-1.67,-2.03,0,*49
1503490041.35,6283,16.44,73902.8,7.59,-2.03,-2.39,0,*40
1503490042.57,6284,16.44,73902.3,7.59,-1.39,-1.67,0,*45
1503490043.8,6285,16.44,73904.0,7.57,-1.91,-2.27,0,*4F
1503490045.01,6286,16.44,73904.0,7.55,-1.95,-2.23,0,*4E
1503490046.23,6287,16.44,73900.5,7.55,-1.99,-2.39,0,*48
1503490047.45,6288,16.44,73900.8,7.55,-2.31,-2.71,0,*4A
1503490048.66,6289,16.44,73906.5,7.51,-2.03,-2.43,0,*4F
1503490049.89,6290,16.44,73904.0,7.49,-1.83,-2.27,0,*47
1503490051.1,6291,16.44,73904.8,7.51,-1.63,-2.11,0,*44
1503490052.34,6292,16.44,73900.3,7.49,-1.63,-2.03,0,*4D
1503490053.54,6293,16.44,73902.5,7.47,-1.67,-2.15,0,*41
1503490054.78,6294,16.44,73904.3,7.47,-1.17,-1.43,0,*41
1503490055.98,6295,16.44,73902.3,7.43,-0.37,-0.69,0,*4E
1503490057.19,6296,16.44,73904.8,7.47,-0.77,-0.93,0,*48
1503490058.39,6297,16.44,73904.0,7.47,-0.53,-0.81,0,*4C
1503490059.62,6298,16.44,73900.8,7.49,-0.69,-0.93,0,*47
1503490060.84,6299,16.44,73902.3,7.49,-0.65,-0.85,0,*4D
1503490062.04,6300,16.44,73902.0,7.47,-0.53,-0.81,0,*43
1503490063.3,6301,16.44,73902.8,7.49,-0.97,-1.39,0,*76
1503490064.53,6302,16.44,73906.3,7.49,-1.63,-1.83,0,*4E
1503490065.79,6303,16.44,73902.5,7.47,-1.43,-1.91,0,*40
1503490067.01,6304,16.44,73900.8,7.43,-1.21,-1.67,0,*4E
1503490068.27,6305,16.44,73902.0,7.43,-1.87,-2.47,0,*42
1503490069.45,6306,16.44,73902.3,7.41,-1.71,-2.23,0,*48
1503490070.68,6307,16.44,73902.0,7.41,-0.97,-1.35,0,*74
1503490071.91,6308,16.44,73904.5,7.39,-0.89,-1.17,0,*7B
1503490073.13,6309,16.44,73904.8,7.39,-1.25,-1.71,0,*4D
1503490074.31,6310,16.44,73902.3,7.37,-1.79,-2.27,0,*42
1503490075.51,6311,16.44,73900.8,7.37,-1.55,-1.95,0,*47
1503490076.72,6312,16.44,73904.5,7.37,-1.51,-2.03,0,*4C
1503490077.93,6313,16.44,73902.3,7.37,-1.09,-1.63,0,*45
1503490079.12,6314,16.44,73904.5,7.37,-1.79,-2.39,0,*49
1503490080.33,6315,16.44,73900.8,7.33,-1.59,-2.07,0,*43
1503490081.54,6316,16.44,73902.0,7.33,-1.13,-1.67,0,*4B
1503490082.78,6317,16.44,73900.0,7.33,-1.01,-1.47,0,*4B
1503490084.02,6318,16.44,73900.0,7.31,-1.39,-1.75,0,*4C
1503490085.25,6319,16.44,73904.0,7.31,-1.13,-1.63,0,*42
1503490086.47,6320,16.44,73906.5,7.29,-1.35,-1.75,0,*42
1503490087.71,6321,16.44,73902.3,7.29,-1.05,-1.35,0,*44
1503490088.91,6322,16.44,73902.8,7.29,-0.85,-1.25,0,*7F
1503490090.12,6323,16.44,73906.5,7.29,-0.65,-1.01,0,*76
1503490091.36,6324,16.44,73904.0,7.29,-1.01,-1.39,0,*49
1503490092.56,6325,16.44,73904.8,7.29,-0.73,-1.13,0,*74
1503490093.77,6326,16.44,73906.5,7.29,-0.73,-1.13,0,*77
1503490094.95,6327,16.44,73904.3,7.25,-0.81,-1.21,0,*76
1503490096.21,6328,16.44,73906.3,7.27,-1.39,-1.95,0,*46
1503490097.4,6329,16.44,73904.3,7.25,-1.21,-1.75,0,*42
1503490098.58,6330,16.44,73902.5,7.25,-1.63,-2.19,0,*45
1503490099.77,6331,16.44,73904.3,7.25,-1.67,-2.31,0,*4A
1503490100.97,6332,16.44,73904.0,7.19,-1.59,-2.15,0,*4D
1503490102.17,6333,16.44,73906.8,7.19,-1.63,-2.15,0,*45
1503490103.38,6334,16.44,73906.8,7.15,-1.67,-2.19,0,*46
1503490104.65,6335,16.44,73902.5,7.15,-1.99,-2.55,0,*4E
1503490105.89,6336,16.44,73904.0,7.15,-1.67,-2.07,0,*4B
1503490107.12,6337,16.44,73906.0,7.11,-1.95,-2.43,0,*43
1503490108.38,6338,16.44,73906.0,7.11,-1.43,-1.91,0,*4B
1503490109.59,6339,16.44,73902.5,7.11,-1.25,-1.67,0,*43
1503490110.82,6340,16.44,73904.0,7.07,-1.87,-2.27,0,*45
1503490112.03,6341,16.44,73904.8,7.09,-2.07,-2.39,0,*4E
1503490113.23,6342,16.44,73904.0,7.05,-1.51,-1.87,0,*47
1503490114.44,6343,16.44,73902.5,7.05,-1.67,-2.03,0,*4C
1503490115.68,6344,16.44,73904.0,7.03,-1.67,-1.91,0,*45
1503490116.92,6345,16.44,73904.0,7.03,-1.29,-1.43,0,*41
1503490118.15,6346,16.44,73906.3,7.03,-1.05,-1.25,0,*4C
1503490119.38,6347,16.44,73904.3,6.99,-0.81,-1.05,0,*70
1503490120.61,6348,16.44,73904.3,6.99,-0.73,-0.97,0,*48
1503490121.86,6349,16.44,73902.0,6.99,-0.85,-1.09,0,*76
1503490123.1,6350,16.44,73906.5,6.99,-1.35,-1.67,0,*4C
1503490124.33,6351,16.44,73906.3,6.99,-1.35,-1.55,0,*4C
1503490125.53,6352,16.44,73906.5,6.97,-1.59,-1.87,0,*44
1503490126.74,6353,16.44,73906.3,6.97,-1.75,-1.99,0,*44
1503490127.94,6354,16.44,73904.8,6.95,-1.51,-1.75,0,*45